Regional Weather Roundup
Issued by NWS

Home | Current Version | Previous Version | Graphics & Text | Print | Product List | Glossary On
Versions: 1 2 3 4 5 6 7 8 9 10 11 12 13 14 15 16 17 18 19 20 21 22 23 24 25 26 27 28 29 30 31 32 33 34 35 36 37 38 39 40 41 42 43 44 45 46 47 48 49 50
000
ASUS43 KLOT 260209
RWRIL

ILLINOIS REGIONAL WEATHER ROUNDUP
NATIONAL WEATHER SERVICE CHICAGO/ROMEOVILLE IL
900 PM CDT THU MAY 25 2017

NOTE: "FAIR" INDICATES FEW OR NO CLOUDS BELOW 12,000 FEET WITH NO
SIGNIFICANT WEATHER AND/OR OBSTRUCTIONS TO VISIBILITY.

* THESE STATIONS ARE NOT UNDER NWS QUALITY CONTROL. THEY ALSO MAY NOT
  REPORT WEATHER SUCH AS PRECIPITATION OR FOG.

ILZ001-002-007-009-015-016-024-260300-
NORTHWEST ILLINOIS

CITY           SKY/WX    TMP DP  RH WIND       PRES   REMARKS
MOLINE         CLEAR     63  54  72 SE7       29.71R
STERLING*      CLEAR     61  57  87 S3        29.74R
SAVANNA*       CLEAR     62  54  74 CALM      29.72R
$$

ILZ003-004-008-010-011-017-018-260300-
NORTH CENTRAL ILLINOIS

CITY           SKY/WX    TMP DP  RH WIND       PRES   REMARKS
ROCKFORD       PTCLDY    62  53  72 CALM      29.74R
FREEPORT*      PTCLDY    59  54  83 SE3       29.75R
ROCHELLE*      CLEAR     61  57  88 W3        29.74R
DE KALB*       CLEAR     62  53  73 W5        29.74R
PERU*          CLEAR     61  55  82 CALM      29.74S
$$

ILZ005-006-012>014-019>023-260300-
NORTHEAST ILLINOIS

CITY           SKY/WX    TMP DP  RH WIND       PRES   REMARKS
CHICAGO-OHARE  PTCLDY    59  49  69 NE7       29.73R
CHICAGO-MIDWAY PTCLDY    61  50  67 NE5       29.73R
AURORA         PTCLDY    59  55  87 W5        29.73R
LANSING*       CLEAR     56  52  86 CALM      29.74R
JOLIET*        CLOUDY    63  55  76 SE3       29.74R
WAUKEGAN       CLEAR     55  51  86 CALM      29.72R
DUPAGE AIRPORT MOCLDY    59  55  87 S3        29.72R
KANKAKEE*      CLOUDY    60  52  75 CALM      29.76R
WHEELING       CLEAR     56  51  84 CALM      29.74R
MORRIS*        CLEAR     61  55  78 CALM      29.72R
ROMEOVILLE*    PTCLDY    60  57  90 CALM      29.74R
NORTHERLY ISL    N/A     56  49  77 MISG        N/A
$$

LMZ740>746-260300-
SOUTHERN LAKE MICHIGAN

STATION/POSITION SKY/WX   TEMP    WIND        PRES    VSBY  WAVE
                          AIR SEA DIR/SP/G                  HT/PER
                          (F)     (DEG/KT/KT) (MB)    (MI)  (FT/S)
SOUTHERN BUOY              47 45  340/ 10/ 12 1005.1          2/ 5
WILMETTE HARBOR            51 51                N/A           2/ 5
HARRISON CRIB              54     360/ 11/ 12   N/A
BURNHAM HARBOR             55     350/  6/  9   N/A
CALUMET HARBOR             55     330/  5/  8 1006.1R
BURNS HARBOR               54     290/  5/  8 1007.1R
MICHIGAN CITY              51     240/  7/  8   N/A
MICHIGAN CITY 6N           50 51  270/  8/ 12   N/A           3/ 5
ST. JOSEPH                 52 55  300/  8/ 10 1006.4          3/ 5
$$

ILZ025>027-034>036-040-047-049-050-058-095>099-260300-
WEST-CENTRAL ILLINOIS

CITY           SKY/WX    TMP DP  RH WIND       PRES   REMARKS
QUINCY         CLEAR     65  56  72 SE3       29.71R
GALESBURG*     CLEAR     64  54  70 S3        29.71S
MACOMB*        CLEAR     63  56  79 S5        29.74S
JACKSONVILLE*  CLEAR     64  54  69 CALM      29.74R
PITTSFIELD*    CLEAR     64  55  73 E5        29.73R
$$

ILZ028>032-037-038-041>044-048-051>054-059>061-260300-
CENTRAL ILLINOIS

CITY           SKY/WX    TMP DP  RH WIND       PRES   REMARKS
PONTIAC        CLEAR     60  57  90 SW5       29.75R
BLOOMINGTON    CLEAR     59  54  83 NE3       29.77R
DECATUR        CLEAR     65  53  65 W3        29.75R
PEORIA         CLEAR     62  57  83 E3        29.74R
LACON*         CLEAR     58  55  91 CALM      29.73S
LINCOLN*       CLEAR     66  53  63 CALM      29.74R
SPRINGFIELD    CLEAR     64  58  80 CALM      29.74R
TAYLORVILLE    CLEAR     64  56  76 CALM      29.75R
$$

ILZ033-039-045-046-055>057-062-063-260300-
EAST-CENTRAL ILLINOIS

CITY           SKY/WX    TMP DP  RH WIND       PRES   REMARKS
CHAMPAIGN      CLEAR     59  54  83 NE3       29.76R
RANTOUL*       CLEAR     61  57  87 CALM      29.76R
MATTOON        MOCLDY    63  60  90 CALM      29.75R
PARIS*         CLEAR     58  56  96 CALM      29.77R
$$

ILZ079-100>102-260300-
SOUTHWEST ILLINOIS

CITY           SKY/WX    TMP DP  RH WIND       PRES   REMARKS
ALTON          CLEAR     59  54  82 CALM      29.73R
BELLEVILLE     CLEAR     63  56  76 CALM      29.74S
CAHOKIA*       CLEAR     65  50  58 CALM      29.73R
SPARTA*        CLEAR     65  54  68 CALM      29.75R
$$

ILZ064>066-069>071-074>076-080>082-084>086-088>090-092>094-260300-
SOUTH-CENTRAL ILLINOIS

CITY           SKY/WX    TMP DP  RH WIND       PRES   REMARKS
CARBONDALE     CLEAR     65  54  67 S5        29.75R
CAIRO*         CLEAR     69  52  55 SW6       29.77R
EFFINGHAM*     CLEAR     62  59  89 CALM      29.76S
MARION         PTCLDY    66  54  63 CALM      29.77R
MT. VERNON       N/A     58  53  84 CALM      29.76R
CENTRALIA*     CLEAR     64  59  83 CALM      29.75R
SALEM*         CLEAR     64  53  68 CALM      29.75S
METROPOLIS*    CLEAR     67  51  57 S3        29.78R
$$

ILZ067-068-072-073-078-083-087-091-260300-
SOUTHEAST ILLINOIS

CITY           SKY/WX    TMP DP  RH WIND       PRES   REMARKS
LAWRENCEVILLE  CLEAR     65  57  75 W5        29.76R
FLORA*         CLEAR     64  56  74 S3        29.76R
FAIRFIELD*     CLEAR     63  54  73 CALM      29.75R
HARRISBURG*    CLEAR     64  54  69 CALM      29.77R
ROBINSON*      CLEAR     61  59  91 CALM      29.77R
CARMI*         CLEAR     63  56  79 CALM      29.76R
$$

ABBREVIATIONS USED IN REMARKS
   TC - TEMPERATURE IN CELSIUS
  WCI - WIND CHILL INDEX
   HX - HEAT INDEX
  VSB - VISIBILITY
$$





USA.gov is the U.S. government's official web portal to all federal, state and local government web resources and services.